Time,TemperatureF,DewpointF,PressureIn,WindDirection,WindDirectionDegrees,WindSpeedMPH,WindSpeedGustMPH,Humidity,HourlyPrecipIn,Conditions,Clouds,dailyrainin,SoftwareType,DateUTC
2015-05-22 00:03:00,65.1,38.2,29.23,North,351,6.3,6.3,37,0.00,,CLR,0.00,VWS V15.00,2015-05-22 04:03:00,
2015-05-22 00:08:00,64.9,38.8,29.23,NNW,347,4.5,4.5,38,0.00,,CLR,0.00,VWS V15.00,2015-05-22 04:08:00,
2015-05-22 00:13:00,64.8,37.9,29.23,NNW,347,4.5,4.9,37,0.00,,CLR,0.00,VWS V15.00,2015-05-22 04:13:00,
2015-05-22 00:18:00,64.6,38.4,29.23,NNW,347,9.2,9.2,38,0.00,,CLR,0.00,VWS V15.00,2015-05-22 04:18:00,
2015-05-22 00:23:00,64.4,37.6,29.23,NNW,347,0.0,0.0,37,0.00,,CLR,0.00,VWS V15.00,2015-05-22 04:23:00,
2015-05-22 00:28:00,64.2,37.4,29.23,North,351,0.0,6.7,37,0.00,,CLR,0.00,VWS V15.00,2015-05-22 04:28:00,
2015-05-22 00:33:00,64.0,37.3,29.26,North,351,8.3,8.3,37,0.00,,CLR,0.00,VWS V15.00,2015-05-22 04:33:00,
2015-05-22 00:38:00,64.0,37.3,29.26,North,351,0.0,3.1,37,0.00,,CLR,0.00,VWS V15.00,2015-05-22 04:38:00,
2015-05-22 00:43:00,63.9,37.1,29.26,North,351,2.7,2.7,37,0.00,,CLR,0.00,VWS V15.00,2015-05-22 04:43:00,
2015-05-22 00:48:00,63.9,37.1,29.26,North,351,0.0,0.0,37,0.00,,CLR,0.00,VWS V15.00,2015-05-22 04:48:00,
2015-05-22 00:53:00,63.9,37.1,29.26,North,351,5.4,5.4,37,0.00,,CLR,0.00,VWS V15.00,2015-05-22 04:53:00,
2015-05-22 00:58:00,63.7,37.0,29.26,North,351,3.1,3.1,37,0.00,,CLR,0.00,VWS V15.00,2015-05-22 04:58:00,
2015-05-22 01:03:00,63.7,37.6,29.26,North,351,4.0,4.9,38,0.00,,CLR,0.00,VWS V15.00,2015-05-22 05:03:00,
2015-05-22 01:08:00,63.7,37.0,29.26,North,351,0.0,3.6,37,0.00,,CLR,0.00,VWS V15.00,2015-05-22 05:08:00,
2015-05-22 01:13:00,63.5,36.8,29.26,North,351,4.5,6.9,37,0.00,,CLR,0.00,VWS V15.00,2015-05-22 05:13:00,
2015-05-22 01:18:00,63.3,37.3,29.26,North,351,8.3,8.3,38,0.00,,CLR,0.00,VWS V15.00,2015-05-22 05:18:00,
2015-05-22 01:23:00,63.1,37.1,29.26,North,351,4.5,7.4,38,0.00,,CLR,0.00,VWS V15.00,2015-05-22 05:23:00,
2015-05-22 01:28:00,63.1,37.1,29.26,North,351,5.4,6.3,38,0.00,,CLR,0.00,VWS V15.00,2015-05-22 05:28:00,
2015-05-22 01:33:00,63.0,37.0,29.26,North,351,0.0,4.5,38,0.00,,CLR,0.00,VWS V15.00,2015-05-22 05:33:00,
2015-05-22 01:38:00,63.1,37.8,29.26,North,351,3.6,10.1,39,0.00,,CLR,0.00,VWS V15.00,2015-05-22 05:38:00,
2015-05-22 01:43:00,63.0,37.6,29.26,North,351,4.0,11.0,39,0.00,,CLR,0.00,VWS V15.00,2015-05-22 05:43:00,
2015-05-22 01:48:00,62.8,36.8,29.26,North,351,0.0,4.0,38,0.00,,OVC047,0.00,VWS V15.00,2015-05-22 05:48:00,
2015-05-22 01:53:00,62.6,36.7,29.26,North,351,2.7,5.4,38,0.00,,OVC047,0.00,VWS V15.00,2015-05-22 05:53:00,
2015-05-22 01:58:00,62.6,36.7,29.26,NNW,347,7.8,7.8,38,0.00,,OVC047,0.00,VWS V15.00,2015-05-22 05:58:00,
2015-05-22 02:03:00,62.6,36.7,29.26,North,351,5.4,5.4,38,0.00,,OVC047,0.00,VWS V15.00,2015-05-22 06:03:00,
2015-05-22 02:08:00,62.4,37.2,29.26,North,351,3.1,5.8,39,0.00,,OVC047,0.00,VWS V15.00,2015-05-22 06:08:00,
2015-05-22 02:13:00,62.2,36.3,29.26,North,351,0.0,3.6,38,0.00,,OVC047,0.00,VWS V15.00,2015-05-22 06:13:00,
2015-05-22 02:18:00,62.2,37.0,29.26,North,351,2.7,3.1,39,0.00,,OVC047,0.00,VWS V15.00,2015-05-22 06:18:00,
2015-05-22 02:23:00,62.2,37.0,29.26,North,351,0.0,0.0,39,0.00,,OVC047,0.00,VWS V15.00,2015-05-22 06:23:00,
2015-05-22 02:28:00,62.2,37.6,29.26,North,351,0.0,0.0,40,0.00,,OVC047,0.00,VWS V15.00,2015-05-22 06:28:00,
2015-05-22 02:33:00,62.2,37.6,29.26,North,351,0.0,0.0,40,0.00,,OVC047,0.00,VWS V15.00,2015-05-22 06:33:00,
2015-05-22 02:38:00,62.2,37.6,29.26,NNW,347,0.0,2.7,40,0.00,,OVC047,0.00,VWS V15.00,2015-05-22 06:38:00,
2015-05-22 02:43:00,61.9,37.3,29.26,NNW,347,0.0,0.0,40,0.00,,OVC047,0.00,VWS V15.00,2015-05-22 06:43:00,
2015-05-22 02:48:00,61.9,38.0,29.26,North,351,0.0,5.4,41,0.00,,FEW050,0.00,VWS V15.00,2015-05-22 06:48:00,
2015-05-22 02:53:00,61.7,37.8,29.26,North,351,0.0,0.0,41,0.00,,FEW050,0.00,VWS V15.00,2015-05-22 06:53:00,
2015-05-22 02:58:00,61.5,38.2,29.26,North,351,0.0,5.8,42,0.00,,FEW050,0.00,VWS V15.00,2015-05-22 06:58:00,
2015-05-22 03:03:00,61.5,38.2,29.26,North,351,3.6,3.6,42,0.00,,FEW050,0.00,VWS V15.00,2015-05-22 07:03:00,
2015-05-22 03:08:00,61.3,38.1,29.26,North,351,2.7,4.5,42,0.00,,FEW050,0.00,VWS V15.00,2015-05-22 07:08:00,
2015-05-22 03:14:00,61.3,38.1,29.26,North,351,3.1,3.1,42,0.00,,FEW050,0.00,VWS V15.00,2015-05-22 07:14:00,
2015-05-22 03:19:00,61.2,38.5,29.26,North,351,0.0,0.0,43,0.00,,FEW050,0.00,VWS V15.00,2015-05-22 07:19:00,
2015-05-22 03:24:00,61.3,38.7,29.26,North,351,0.0,2.7,43,0.00,,FEW050,0.00,VWS V15.00,2015-05-22 07:24:00,
2015-05-22 03:29:00,61.2,38.5,29.26,North,351,0.0,0.0,43,0.00,,FEW050,0.00,VWS V15.00,2015-05-22 07:29:00,
2015-05-22 03:34:00,61.2,38.5,29.26,North,351,0.0,5.4,43,0.00,,FEW050,0.00,VWS V15.00,2015-05-22 07:34:00,
2015-05-22 03:39:00,61.2,38.5,29.26,North,351,0.0,0.0,43,0.00,,FEW050,0.00,VWS V15.00,2015-05-22 07:39:00,
2015-05-22 03:44:00,61.2,39.1,29.26,North,351,0.0,0.0,44,0.00,,FEW050,0.00,VWS V15.00,2015-05-22 07:44:00,
2015-05-22 03:49:00,61.2,39.1,29.29,North,351,0.0,0.0,44,0.00,,CLR,0.00,VWS V15.00,2015-05-22 07:49:00,
2015-05-22 03:54:00,61.2,39.1,29.29,North,351,0.0,0.0,44,0.00,,CLR,0.00,VWS V15.00,2015-05-22 07:54:00,
2015-05-22 03:59:00,61.0,38.9,29.29,NNW,347,0.0,0.0,44,0.00,,CLR,0.00,VWS V15.00,2015-05-22 07:59:00,
2015-05-22 04:04:00,60.8,38.8,29.29,North,351,0.0,0.0,44,0.00,,CLR,0.00,VWS V15.00,2015-05-22 08:04:00,
2015-05-22 04:09:00,60.6,38.6,29.29,North,351,0.0,5.4,44,0.00,,CLR,0.00,VWS V15.00,2015-05-22 08:09:00,
2015-05-22 04:14:00,60.3,38.3,29.29,North,351,3.6,4.0,44,0.00,,CLR,0.00,VWS V15.00,2015-05-22 08:14:00,
2015-05-22 04:19:00,59.9,38.0,29.29,North,351,0.0,0.0,44,0.00,,CLR,0.00,VWS V15.00,2015-05-22 08:19:00,
2015-05-22 04:24:00,59.9,38.5,29.29,North,351,4.5,4.5,45,0.00,,CLR,0.00,VWS V15.00,2015-05-22 08:24:00,
2015-05-22 04:29:00,59.7,38.4,29.29,North,351,0.0,0.0,45,0.00,,CLR,0.00,VWS V15.00,2015-05-22 08:29:00,
2015-05-22 04:34:00,59.7,38.9,29.29,North,351,0.0,2.7,46,0.00,,CLR,0.00,VWS V15.00,2015-05-22 08:34:00,
2015-05-22 04:39:00,59.5,38.8,29.29,North,351,0.0,0.0,46,0.00,,CLR,0.00,VWS V15.00,2015-05-22 08:39:00,
2015-05-22 04:44:00,59.4,38.6,29.29,North,351,0.0,0.0,46,0.00,,CLR,0.00,VWS V15.00,2015-05-22 08:44:00,
2015-05-22 04:49:00,59.4,38.6,29.29,North,351,4.9,4.9,46,0.00,,CLR,0.00,VWS V15.00,2015-05-22 08:49:00,
2015-05-22 04:54:00,59.2,38.4,29.29,North,351,0.0,4.9,46,0.00,,CLR,0.00,VWS V15.00,2015-05-22 08:54:00,
2015-05-22 04:59:00,59.0,38.3,29.29,North,351,0.0,0.0,46,0.00,,CLR,0.00,VWS V15.00,2015-05-22 08:59:00,
2015-05-22 05:04:00,59.0,38.8,29.29,North,351,0.0,4.5,47,0.00,,CLR,0.00,VWS V15.00,2015-05-22 09:04:00,
2015-05-22 05:09:00,59.0,38.3,29.29,North,351,0.0,2.7,46,0.00,,CLR,0.00,VWS V15.00,2015-05-22 09:09:00,
2015-05-22 05:14:00,58.8,38.1,29.29,North,351,4.9,4.9,46,0.00,,CLR,0.00,VWS V15.00,2015-05-22 09:14:00,
2015-05-22 05:19:00,58.6,38.5,29.32,North,351,0.0,3.6,47,0.00,,CLR,0.00,VWS V15.00,2015-05-22 09:19:00,